Weather History for KVIH - April, 2014

Change the Weather History Date:

Tuesday, April 15, 2014

  Actual Average Record
Temperature  
Mean Temperature 37 °F 55 °F  
Max Temperature 48 °F 67 °F 84 °F (1955)
Min Temperature 26 °F 44 °F 26 °F (2014)
Degree Days  
Heating Degree Days 28 11  
Month to date heating degree days 194 189  
Since 1 July heating degree days 5251 4593  
Cooling Degree Days 0 1  
Month to date cooling degree days 7 9  
Year to date cooling degree days 7 13  
Moisture  
Dew Point 22 °F    
Average Humidity 56    
Maximum Humidity 81    
Minimum Humidity 31    
Precipitation  
Precipitation 0.00 in 0.14 in 1.53 in (1991)
Month to date precipitation 2.14 2.00  
Year to date precipitation 4.31 9.55  
Sea Level Pressure  
Sea Level Pressure 30.18 in    
Wind  
Wind Speed 7 mph (NW)    
Max Wind Speed 16 mph    
Max Gust Speed 20 mph    
Visibility 10 miles    
Events      
T = Trace of Precipitation, MM = Missing Value Source: NWS Daily Summary

Daily Weather History Graph

Daily Weather History Graph

Search for Another Location

Airport or City:

Trip Planner

Search our weather history database for the weather conditions in past years. The results will help you decide how hot, cold, wet, or windy it might be!

Date:

Astronomy

Apr. 15, 2014 Rise Set
Actual Time 6:31 AM CDT 7:43 PM CDT
Civil Twilight 6:04 AM CDT 8:10 PM CDT
Nautical Twilight 5:31 AM CDT 8:43 PM CDT
Astronomical Twilight 4:57 AM CDT 9:17 PM CDT
Moon 8:24 PM CDT (4/15) 6:39 AM CDT (4/15)
Length of Visible Light 14h 06m
Length of Day
13h 11m
Full, 100% of the Moon is Illuminated
Apr 15
Full
Apr 22
Last Quarter
Apr 29
New
May 6
First Quarter
May 14
Full

Hourly Weather History & Observations

Time (CDT) Temp. Windchill Dew Point Humidity Pressure Visibility Wind Dir Wind Speed Gust Speed Precip Events Conditions
12:53 AM 30.0 °F 23.2 °F 24.1 °F 79% 30.15 in 10.0 mi NNW 6.9 mph - N/A   Clear
1:53 AM 28.9 °F 22.8 °F 23.0 °F 78% 30.14 in 10.0 mi NW 5.8 mph - N/A   Clear
2:53 AM 28.0 °F 21.7 °F 21.9 °F 78% 30.14 in 10.0 mi NW 5.8 mph - N/A   Clear
3:53 AM 27.0 °F 19.5 °F 21.9 °F 81% 30.16 in 10.0 mi NW 6.9 mph - N/A   Clear
4:53 AM 27.0 °F 20.5 °F 21.9 °F 81% 30.17 in 10.0 mi NW 5.8 mph - N/A   Clear
5:53 AM 26.1 °F 20.5 °F 21.9 °F 84% 30.18 in 10.0 mi NW 4.6 mph - N/A   Clear
6:53 AM 26.1 °F 20.5 °F 21.9 °F 84% 30.20 in 10.0 mi NW 4.6 mph - N/A   Clear
7:53 AM 30.0 °F 23.2 °F 24.1 °F 79% 30.22 in 10.0 mi NNW 6.9 mph - N/A   Clear
8:53 AM 33.1 °F 27.7 °F 21.9 °F 64% 30.23 in 10.0 mi North 5.8 mph - N/A   Clear
9:53 AM 37.0 °F 31.0 °F 19.9 °F 50% 30.23 in 10.0 mi NNW 8.1 mph - N/A   Clear
10:53 AM 39.0 °F 33.4 °F 21.9 °F 50% 30.25 in 10.0 mi West 8.1 mph - N/A   Clear
11:53 AM 41.0 °F 34.7 °F 19.9 °F 43% 30.25 in 10.0 mi NNW 10.4 mph 20.7 mph N/A   Partly Cloudy
12:53 PM 42.1 °F 37.1 °F 21.9 °F 45% 30.22 in 10.0 mi NNW 8.1 mph - N/A   Clear
1:53 PM 45.0 °F 39.7 °F 21.9 °F 40% 30.21 in 10.0 mi WNW 10.4 mph - N/A   Partly Cloudy
2:53 PM 46.0 °F 41.4 °F 21.9 °F 39% 30.20 in 10.0 mi West 9.2 mph - N/A   Clear
3:53 PM 46.9 °F - 21.9 °F 37% 30.18 in 10.0 mi WNW 4.6 mph - N/A   Clear
4:53 PM 46.9 °F - 19.9 °F 34% 30.16 in 10.0 mi Variable 6.9 mph - N/A   Clear
5:53 PM 48.0 °F - 19.9 °F 33% 30.16 in 10.0 mi WSW 3.5 mph - N/A   Clear
6:53 PM 46.0 °F 44.8 °F 19.9 °F 35% 30.14 in 10.0 mi WNW 3.5 mph - N/A   Clear
7:53 PM 41.0 °F 37.1 °F 24.1 °F 51% 30.14 in 10.0 mi East 5.8 mph - N/A   Clear
8:53 PM 37.9 °F 33.5 °F 24.1 °F 57% 30.16 in 10.0 mi ESE 5.8 mph - N/A   Clear
9:53 PM 36.0 °F 30.3 °F 25.0 °F 64% 30.18 in 10.0 mi ESE 6.9 mph - N/A   Clear
10:53 PM 37.9 °F 32.1 °F 23.0 °F 55% 30.17 in 10.0 mi SE 8.1 mph - N/A   Clear
11:53 PM 37.9 °F 31.5 °F 21.9 °F 53% 30.17 in 10.0 mi SE 9.2 mph - N/A   Clear